Flag for United Kingdom Weather past 2 weeks in Milton Keynes, England, United Kingdom

Now
70 °F

Scattered clouds.


Feels Like: 70 °F
Forecast: 56 / 66 °F
Wind: 12 mph from South

Location: Cranfield

Current Time: Aug 1, 2014 at 11:19:49 AM

Latest Report: Aug 1, 2014 at 10:50 AM


Visibility: N/A

Pressure: 29.77 "Hg

Humidity: 73%

Dew point: 61 °F

Location of Milton KeynesLocation

Historic Weather in Milton Keynes — Graph

°F

Milton Keynes temperature yesterday

Maximum temperature yesterday: 75 °F (at 1:50 PM)
Minimum temperature yesterday: 61 °F (at 7:50 AM)
Average temperature yesterday: 71 °F

Past Weeks' High & Low Weather Summary

 TemperatureHumidityPressure
High84 °F (Jul 18, 2:50 PM)100% (Jul 18, 7:50 AM)30.24 "Hg (Jul 18, 7:50 AM)
Low55 °F (Jul 22, 7:50 AM)37% (Jul 26, 3:50 PM)29.74 "Hg (Jul 19, 3:50 PM)
Average73 °F68%30.00 "Hg
* Reported Jul 17 10:20 AM — Aug 1 10:20 AM, Milton Keynes, Weather by CustomWeather, © 2014

Note: Actual official high and low records may vary slightly from our data, if they occured in-between our weather recording intervals... More about our weather records

Advertising

Milton Keynes weather history for previous 24 hours

 ConditionsComfort  
Time TempWeatherWind HumidityBarometerVisibility
10:20 AM
Aug 1
68 °FScattered clouds.12 mph78%29.77 "HgN/A
9:50 AM66 °FScattered clouds.10 mph83%29.80 "HgN/A
9:20 AM66 °FScattered clouds.9 mph100%29.80 "HgN/A
8:50 AM64 °FPartly sunny.9 mph94%29.80 "HgN/A
8:20 AM64 °FPartly sunny.6 mph94%29.80 "HgN/A
7:50 AM63 °FPartly sunny.7 mph100%29.80 "HgN/A
6:20 PM
Jul 31
68 °FPassing clouds.9 mph78%29.89 "HgN/A
5:50 PM72 °FPassing clouds.14 mph65%29.86 "HgN/A
5:20 PM73 °FScattered clouds.12 mph61%29.86 "HgN/A
4:50 PM75 °FScattered clouds.12 mph54%29.86 "HgN/A
4:20 PM75 °FScattered clouds.10 mph54%29.89 "HgN/A
3:50 PM75 °FPassing clouds.13 mph54%29.89 "HgN/A
3:20 PM75 °FScattered clouds.9 mph54%29.89 "HgN/A
2:50 PM75 °FScattered clouds.12 mph54%29.89 "HgN/A
2:20 PM75 °FScattered clouds.10 mph54%29.89 "HgN/A
1:50 PM75 °FScattered clouds.12 mph54%29.89 "HgN/A
1:20 PM73 °FPartly sunny.9 mph57%29.92 "HgN/A
12:50 PM73 °FScattered clouds.9 mph57%29.92 "HgN/A
12:20 PM73 °FScattered clouds.9 mph57%29.92 "HgN/A
11:50 AM73 °FScattered clouds.9 mph53%29.92 "HgN/A
11:20 AM72 °FScattered clouds.8 mph61%29.92 "HgN/A
Weather by CustomWeather, © 2014

See weather overviewHow to use our weather pages